Time,TemperatureF,DewpointF,PressureIn,WindDirection,WindDirectionDegrees,WindSpeedMPH,WindSpeedGustMPH,Humidity,HourlyPrecipIn,Conditions,Clouds,dailyrainin,SolarRadiationWatts/m^2,SoftwareType,DateUTC
2013-09-16 00:12:00,54.8,48.0,29.94,WSW,254,1.0,5.0,78,0.00,,,0.00,0,weatherlink.com 1.10,2013-09-16 06:12:00,
2013-09-16 00:26:00,54.1,48.0,29.94,WSW,242,0.0,4.0,80,0.00,,,0.00,0,weatherlink.com 1.10,2013-09-16 06:26:00,
2013-09-16 00:41:00,52.9,48.0,29.93,WSW,242,0.0,2.0,82,0.00,,,0.00,0,weatherlink.com 1.10,2013-09-16 06:41:00,
2013-09-16 00:56:00,51.0,47.0,29.93,WSW,242,1.0,3.0,86,0.00,,,0.00,0,weatherlink.com 1.10,2013-09-16 06:56:00,
2013-09-16 01:11:00,49.6,47.0,29.93,WSW,242,1.0,4.0,90,0.00,,,0.00,0,weatherlink.com 1.10,2013-09-16 07:11:00,
2013-09-16 01:26:00,49.3,46.0,29.93,WSW,242,0.0,2.0,90,0.00,,,0.00,0,weatherlink.com 1.10,2013-09-16 07:26:00,
2013-09-16 01:41:00,48.7,46.0,29.93,WSW,250,0.0,4.0,91,0.00,,,0.00,0,weatherlink.com 1.10,2013-09-16 07:41:00,
2013-09-16 01:55:00,48.8,46.0,29.93,WSW,250,0.0,2.0,91,0.00,,,0.00,0,weatherlink.com 1.10,2013-09-16 07:55:00,
2013-09-16 02:10:00,48.6,46.0,29.93,WSW,250,3.0,3.0,91,0.00,,,0.00,0,weatherlink.com 1.10,2013-09-16 08:10:00,
2013-09-16 02:25:00,48.9,46.0,29.92,WSW,243,0.0,3.0,91,0.00,,,0.00,0,weatherlink.com 1.10,2013-09-16 08:25:00,
2013-09-16 02:40:00,49.2,47.0,29.92,WSW,243,0.0,2.0,91,0.00,,,0.00,0,weatherlink.com 1.10,2013-09-16 08:40:00,
2013-09-16 02:54:00,49.0,47.0,29.92,WSW,243,2.0,3.0,92,0.00,,,0.00,0,weatherlink.com 1.10,2013-09-16 08:54:00,
2013-09-16 03:09:00,48.1,46.0,29.92,WSW,243,0.0,3.0,91,0.00,,,0.00,0,weatherlink.com 1.10,2013-09-16 09:09:00,
2013-09-16 03:24:00,47.3,45.0,29.92,WSW,243,0.0,2.0,93,0.00,,,0.00,0,weatherlink.com 1.10,2013-09-16 09:24:00,
2013-09-16 03:39:00,47.0,45.0,29.92,WSW,243,0.0,2.0,93,0.00,,,0.00,0,weatherlink.com 1.10,2013-09-16 09:39:00,
2013-09-16 03:53:00,46.8,45.0,29.92,WSW,243,1.0,3.0,94,0.00,,,0.00,0,weatherlink.com 1.10,2013-09-16 09:53:00,
2013-09-16 04:08:00,46.9,46.0,29.92,WSW,257,2.0,4.0,95,0.00,,,0.00,0,weatherlink.com 1.10,2013-09-16 10:08:00,
2013-09-16 04:23:00,46.9,46.0,29.92,WSW,257,0.0,3.0,95,0.00,,,0.00,0,weatherlink.com 1.10,2013-09-16 10:23:00,
2013-09-16 04:38:00,46.8,45.0,29.92,WSW,254,0.0,3.0,95,0.00,,,0.00,0,weatherlink.com 1.10,2013-09-16 10:38:00,
2013-09-16 04:52:00,46.8,46.0,29.92,WSW,254,1.0,3.0,96,0.00,,,0.00,0,weatherlink.com 1.10,2013-09-16 10:52:00,
2013-09-16 05:07:00,46.2,45.0,29.92,WSW,254,1.0,2.0,95,0.00,,,0.00,0,weatherlink.com 1.10,2013-09-16 11:07:00,
2013-09-16 05:22:00,47.4,46.0,29.93,WSW,254,1.0,2.0,96,0.00,,,0.00,0,weatherlink.com 1.10,2013-09-16 11:22:00,
2013-09-16 05:37:00,48.3,47.0,29.92,WSW,257,2.0,4.0,97,0.00,,,0.00,0,weatherlink.com 1.10,2013-09-16 11:37:00,
2013-09-16 05:51:00,48.8,48.0,29.92,WSW,244,0.0,3.0,97,0.00,,,0.00,0,weatherlink.com 1.10,2013-09-16 11:51:00,
2013-09-16 06:06:00,49.4,49.0,29.92,SW,227,3.0,5.0,97,0.00,,,0.00,0,weatherlink.com 1.10,2013-09-16 12:06:00,
2013-09-16 06:20:00,49.1,48.0,29.92,West,269,1.0,3.0,97,0.00,,,0.00,0,weatherlink.com 1.10,2013-09-16 12:20:00,
2013-09-16 06:35:00,48.2,47.0,29.92,West,268,1.0,3.0,96,0.00,,,0.00,0,weatherlink.com 1.10,2013-09-16 12:35:00,
2013-09-16 06:50:00,47.0,46.0,29.92,West,268,3.0,4.0,96,0.00,,,0.00,0,weatherlink.com 1.10,2013-09-16 12:50:00,
2013-09-16 07:04:00,46.9,46.0,29.92,West,268,1.0,2.0,96,0.00,,,0.00,9,weatherlink.com 1.10,2013-09-16 13:04:00,
2013-09-16 07:19:00,47.8,47.0,29.92,West,265,0.0,6.0,97,0.00,,,0.00,28,weatherlink.com 1.10,2013-09-16 13:19:00,
2013-09-16 07:34:00,49.0,48.0,29.92,West,271,0.0,4.0,97,0.00,,,0.00,37,weatherlink.com 1.10,2013-09-16 13:34:00,
2013-09-16 07:49:00,50.0,49.0,29.92,West,271,0.0,2.0,97,0.00,,,0.00,77,weatherlink.com 1.10,2013-09-16 13:49:00,
2013-09-16 08:04:00,51.4,51.0,29.92,SSE,153,0.0,6.0,97,0.00,,,0.00,118,weatherlink.com 1.10,2013-09-16 14:04:00,
2013-09-16 08:19:00,52.4,52.0,29.92,SSE,156,0.0,3.0,97,0.00,,,0.00,165,weatherlink.com 1.10,2013-09-16 14:19:00,
2013-09-16 08:34:00,53.7,53.0,29.92,SSE,151,1.0,3.0,97,0.00,,,0.00,216,weatherlink.com 1.10,2013-09-16 14:34:00,
2013-09-16 08:49:00,55.5,53.0,29.92,ESE,117,0.0,4.0,91,0.00,,,0.00,260,weatherlink.com 1.10,2013-09-16 14:49:00,
2013-09-16 09:04:00,57.0,53.0,29.92,South,175,3.0,4.0,87,0.00,,,0.00,302,weatherlink.com 1.10,2013-09-16 15:04:00,
2013-09-16 09:19:00,58.1,54.0,29.91,SE,138,4.0,5.0,85,0.00,,,0.00,343,weatherlink.com 1.10,2013-09-16 15:19:00,
2013-09-16 09:34:00,59.0,54.0,29.91,ESE,116,3.0,7.0,83,0.00,,,0.00,387,weatherlink.com 1.10,2013-09-16 15:34:00,
2013-09-16 09:49:00,60.2,54.0,29.91,East,100,2.0,7.0,80,0.00,,,0.00,424,weatherlink.com 1.10,2013-09-16 15:49:00,
2013-09-16 10:04:00,61.3,53.0,29.90,East,90,2.0,7.0,75,0.00,,,0.00,461,weatherlink.com 1.10,2013-09-16 16:04:00,
2013-09-16 10:19:00,62.2,53.0,29.90,East,87,1.0,9.0,71,0.00,,,0.00,496,weatherlink.com 1.10,2013-09-16 16:19:00,
2013-09-16 10:34:00,62.8,53.0,29.89,ESE,113,4.0,8.0,71,0.00,,,0.00,531,weatherlink.com 1.10,2013-09-16 16:34:00,
2013-09-16 10:49:00,63.0,53.0,29.89,ESE,115,6.0,8.0,71,0.00,,,0.00,559,weatherlink.com 1.10,2013-09-16 16:49:00,
2013-09-16 11:04:00,63.7,54.0,29.89,ESE,105,2.0,9.0,70,0.00,,,0.00,587,weatherlink.com 1.10,2013-09-16 17:04:00,
2013-09-16 11:19:00,64.2,54.0,29.88,East,93,2.0,7.0,70,0.00,,,0.00,610,weatherlink.com 1.10,2013-09-16 17:19:00,
2013-09-16 11:34:00,64.5,54.0,29.88,SE,145,4.0,10.0,69,0.00,,,0.00,633,weatherlink.com 1.10,2013-09-16 17:34:00,
2013-09-16 11:49:00,64.7,54.0,29.88,ESE,118,4.0,9.0,69,0.00,,,0.00,652,weatherlink.com 1.10,2013-09-16 17:49:00,
2013-09-16 12:04:00,65.7,55.0,29.87,ENE,57,2.0,11.0,69,0.00,,,0.00,671,weatherlink.com 1.10,2013-09-16 18:04:00,
2013-09-16 12:19:00,66.1,55.0,29.87,ESE,112,3.0,12.0,67,0.00,,,0.00,684,weatherlink.com 1.10,2013-09-16 18:19:00,
2013-09-16 12:34:00,66.6,55.0,29.86,East,87,3.0,11.0,67,0.00,,,0.00,696,weatherlink.com 1.10,2013-09-16 18:34:00,
2013-09-16 12:48:00,67.2,56.0,29.86,NE,55,3.0,10.0,68,0.00,,,0.00,703,weatherlink.com 1.10,2013-09-16 18:48:00,
2013-09-16 13:04:00,67.9,56.0,29.85,East,95,9.0,12.0,65,0.00,,,0.00,708,weatherlink.com 1.10,2013-09-16 19:04:00,
2013-09-16 13:18:00,68.6,57.0,29.84,East,86,5.0,10.0,67,0.00,,,0.00,717,weatherlink.com 1.10,2013-09-16 19:18:00,
2013-09-16 13:33:00,68.8,56.0,29.84,NNE,23,13.0,13.0,63,0.00,,,0.00,687,weatherlink.com 1.10,2013-09-16 19:33:00,
2013-09-16 13:48:00,69.4,56.0,29.82,East,82,4.0,14.0,63,0.00,,,0.00,705,weatherlink.com 1.10,2013-09-16 19:48:00,
2013-09-16 14:03:00,70.0,56.0,29.82,East,84,5.0,14.0,61,0.00,,,0.00,390,weatherlink.com 1.10,2013-09-16 20:03:00,
2013-09-16 14:18:00,70.7,57.0,29.81,NE,51,5.0,12.0,61,0.00,,,0.00,703,weatherlink.com 1.10,2013-09-16 20:18:00,
2013-09-16 14:33:00,71.9,56.0,29.80,East,98,4.0,12.0,58,0.00,,,0.00,698,weatherlink.com 1.10,2013-09-16 20:33:00,
2013-09-16 14:48:00,72.2,56.0,29.80,SE,124,4.0,13.0,57,0.00,,,0.00,656,weatherlink.com 1.10,2013-09-16 20:48:00,
2013-09-16 15:03:00,73.0,56.0,29.79,ESE,103,6.0,12.0,55,0.00,,,0.00,691,weatherlink.com 1.10,2013-09-16 21:03:00,
2013-09-16 15:18:00,73.7,57.0,29.78,ESE,104,3.0,9.0,55,0.00,,,0.00,250,weatherlink.com 1.10,2013-09-16 21:18:00,
2013-09-16 15:32:00,71.9,55.0,29.78,ESE,109,4.0,12.0,56,0.00,,,0.00,216,weatherlink.com 1.10,2013-09-16 21:32:00,
2013-09-16 15:47:00,72.0,56.0,29.77,ENE,61,5.0,10.0,58,0.00,,,0.00,605,weatherlink.com 1.10,2013-09-16 21:47:00,
2013-09-16 16:02:00,72.9,56.0,29.77,East,94,6.0,14.0,55,0.00,,,0.00,276,weatherlink.com 1.10,2013-09-16 22:02:00,
2013-09-16 16:17:00,72.6,56.0,29.77,East,89,9.0,12.0,55,0.00,,,0.00,642,weatherlink.com 1.10,2013-09-16 22:17:00,
2013-09-16 16:32:00,71.7,57.0,29.77,East,92,7.0,12.0,59,0.00,,,0.00,253,weatherlink.com 1.10,2013-09-16 22:32:00,
2013-09-16 16:46:00,70.9,55.0,29.77,East,101,9.0,11.0,57,0.00,,,0.00,132,weatherlink.com 1.10,2013-09-16 22:46:00,
2013-09-16 17:01:00,71.2,55.0,29.77,ESE,121,8.0,11.0,56,0.00,,,0.00,506,weatherlink.com 1.10,2013-09-16 23:01:00,
2013-09-16 17:16:00,71.3,54.0,29.77,East,94,3.0,12.0,55,0.00,,,0.00,72,weatherlink.com 1.10,2013-09-16 23:16:00,
2013-09-16 17:30:00,70.3,55.0,29.77,NE,53,1.0,5.0,59,0.00,,,0.00,378,weatherlink.com 1.10,2013-09-16 23:30:00,
2013-09-16 17:45:00,71.8,55.0,29.76,NE,51,5.0,8.0,55,0.00,,,0.00,345,weatherlink.com 1.10,2013-09-16 23:45:00,
2013-09-16 17:59:00,71.8,55.0,29.75,ENE,58,3.0,10.0,55,0.00,,,0.00,70,weatherlink.com 1.10,2013-09-16 23:59:00,
2013-09-16 18:14:00,70.5,54.0,29.74,ENE,63,4.0,11.0,56,0.00,,,0.00,28,weatherlink.com 1.10,2013-09-17 00:14:00,
2013-09-16 18:29:00,69.2,53.0,29.74,SE,144,2.0,9.0,57,0.00,,,0.00,23,weatherlink.com 1.10,2013-09-17 00:29:00,
2013-09-16 18:44:00,67.9,55.0,29.74,WSW,256,2.0,4.0,63,0.00,,,0.00,23,weatherlink.com 1.10,2013-09-17 00:44:00,
2013-09-16 18:58:00,65.2,54.0,29.75,West,265,6.0,6.0,67,0.00,,,0.00,18,weatherlink.com 1.10,2013-09-17 00:58:00,
2013-09-16 19:13:00,63.2,54.0,29.74,West,263,0.0,3.0,71,0.00,,,0.00,12,weatherlink.com 1.10,2013-09-17 01:13:00,
2013-09-16 19:28:00,62.0,52.0,29.75,WSW,250,4.0,5.0,71,0.00,,,0.00,0,weatherlink.com 1.10,2013-09-17 01:28:00,
2013-09-16 19:43:00,60.6,50.0,29.75,West,265,1.0,4.0,68,0.00,,,0.00,0,weatherlink.com 1.10,2013-09-17 01:43:00,
2013-09-16 19:57:00,59.5,51.0,29.75,WSW,257,4.0,5.0,73,0.00,,,0.00,0,weatherlink.com 1.10,2013-09-17 01:57:00,
2013-09-16 20:13:00,58.6,50.0,29.76,WSW,248,1.0,4.0,73,0.00,,,0.00,0,weatherlink.com 1.10,2013-09-17 02:13:00,
2013-09-16 20:27:00,57.2,50.0,29.76,SW,221,0.0,5.0,76,0.00,,,0.00,0,weatherlink.com 1.10,2013-09-17 02:27:00,
2013-09-16 20:42:00,56.5,49.0,29.76,SW,221,2.0,3.0,75,0.00,,,0.00,0,weatherlink.com 1.10,2013-09-17 02:42:00,
2013-09-16 20:56:00,57.0,48.0,29.77,WSW,242,3.0,4.0,73,0.00,,,0.00,0,weatherlink.com 1.10,2013-09-17 02:56:00,
2013-09-16 21:11:00,60.3,48.0,29.77,WSW,242,1.0,3.0,64,0.00,,,0.00,0,weatherlink.com 1.10,2013-09-17 03:11:00,
2013-09-16 21:26:00,61.9,46.0,29.77,WSW,254,4.0,4.0,57,0.00,,,0.00,0,weatherlink.com 1.10,2013-09-17 03:26:00,
2013-09-16 21:40:00,60.4,47.0,29.78,WSW,254,1.0,3.0,61,0.00,,,0.00,0,weatherlink.com 1.10,2013-09-17 03:40:00,
2013-09-16 21:55:00,58.8,46.0,29.78,West,259,3.0,4.0,62,0.00,,,0.00,0,weatherlink.com 1.10,2013-09-17 03:55:00,
2013-09-16 22:10:00,58.2,47.0,29.78,WSW,254,1.0,3.0,66,0.00,,,0.00,0,weatherlink.com 1.10,2013-09-17 04:10:00,
2013-09-16 22:24:00,57.0,47.0,29.78,WSW,254,1.0,2.0,69,0.00,,,0.00,0,weatherlink.com 1.10,2013-09-17 04:24:00,
2013-09-16 22:39:00,56.2,47.0,29.78,WSW,252,2.0,3.0,70,0.00,,,0.00,0,weatherlink.com 1.10,2013-09-17 04:39:00,
2013-09-16 22:54:00,55.3,47.0,29.78,WSW,252,1.0,4.0,74,0.00,,,0.00,0,weatherlink.com 1.10,2013-09-17 04:54:00,
2013-09-16 23:08:00,55.0,47.0,29.79,ESE,111,0.0,4.0,74,0.00,,,0.00,0,weatherlink.com 1.10,2013-09-17 05:08:00,
2013-09-16 23:23:00,54.1,47.0,29.79,WSW,256,1.0,4.0,78,0.00,,,0.00,0,weatherlink.com 1.10,2013-09-17 05:23:00,
2013-09-16 23:38:00,53.4,48.0,29.78,WSW,256,2.0,3.0,81,0.00,,,0.00,0,weatherlink.com 1.10,2013-09-17 05:38:00,
2013-09-16 23:52:00,53.0,48.0,29.78,West,263,3.0,4.0,82,0.00,,,0.00,0,weatherlink.com 1.10,2013-09-17 05:52:00,